Starlink 35709

operational
NORAD ID: 66217 Int'l Des: 2025-244 Owner: SPXS Country: US Constellation: starlink
NOTLE

关于 Starlink 35709

正在加载描述...

实时位置

正在加载3D地球...

即将过境

高度历史

Altitude vs Time

uPlot chart will show altitude changes over time

两行轨道根数

1 66217C 25244L 25301.73868056 .02244400 00000+0 33344-2 0 3014
2 66217 53.1572 134.0885 0010590 273.0968 330.7043 16.01836963 10
Epoch: Oct 28, 2025 • Age: 70 hours

当前状态

高度 245.4 km
速度 7.76 km/s
星下点 -37.16°S, 30.85°W
发射日期 Oct 28, 2025
运行时间 2 days
类型 internet

技术详情

分类 Payload
质量 575.00 kg
干质量 530.00 kg
总质量 575.00 kg
长度 0.30 m
直径 4.10 m
跨度 29.00 m
形状 Box + pan
制造商 SPXS
平台类型 Starlink V2MO
阶段状态 In Orbit
所有者/国家 SPXS/US

大型星座

Loading constellations...